Regional Weather Roundup
Issued by NWS Cleveland, OH

Home | Current Version | Previous Version | Graphics & Text | Print | Product List | Glossary On
Versions: 1 2 3 4 5 6 7 8 9 10 11 12 13 14 15 16 17 18 19 20 21 22 23 24 25 26 27 28 29 30 31 32 33 34 35 36 37 38 39 40 41 42 43 44 45 46 47 48 49 50
000
ASUS41 KCLE 011502
RWRCLE
OHIO REGIONAL WEATHER ROUNDUP
NATIONAL WEATHER SERVICE CLEVELAND, OH
1100 AM EDT SAT AUG 01 2015

NOTE: "FAIR" INDICATES FEW OR NO CLOUDS BELOW 12,000 FEET WITH NO
SIGNIFICANT WEATHER AND/OR OBSTRUCTIONS TO VISIBILITY.

OHZ001>008-015>018-024>027-034-035-043-044-011600-
   NORTHWEST OHIO

CITY           SKY/WX    TMP DP  RH WIND       PRES   REMARKS
DEFIANCE       SUNNY     79  56  45 VRB6      29.98S
FINDLAY        SUNNY     76  59  55 W7        29.97S
TOLEDO EXPRESS SUNNY     74  58  57 W8        29.96R
TOLEDO EXEC    SUNNY     77  57  50 W12       29.96S
LIMA           SUNNY     76  57  51 W8        29.99S
$$

OHZ009>014-019>023-028>033-038-089-011600-
   NORTHEAST OHIO

CITY           SKY/WX    TMP DP  RH WIND       PRES   REMARKS
CLE-HOPKINS    MOSUNNY   77  60  55 W8        29.96S
CLE-LAKEFRONT  SUNNY     77  63  61 W13       29.93S
CUY CO. ARPT   MOSUNNY   77  61  57 NW13      29.95R
LORAIN-ELYRIA  SUNNY     75  60  59 N8        29.96S
ASHTABULA      MOSUNNY   76  58  53 NW8       29.94S
AKRON-CANTON   MOSUNNY   76  55  48 VRB6      29.96S
WOOSTER        SUNNY     76  59  55 NW7       29.97S
MANSFIELD      SUNNY     75  58  55 W7        29.98S
YOUNGSTOWN     MOSUNNY   75  59  57 NW8       29.94F
$$

OHZ042-051>053-060>062-070>072-077>081-011600-
  SOUTHWEST OHIO

CITY           SKY/WX    TMP DP  RH WIND       PRES   REMARKS
CINC-COVINGTON SUNNY     79  58  48 NW9       30.03R
CINC-LUNKEN    SUNNY     79  60  52 VRB6      30.01S
HAMILTON       SUNNY     79  57  46 NW8       30.02S
DAYTON         MOSUNNY   76  60  57 NW10      30.02S
WRIGHT-PAT AFB SUNNY     76  59  54 NW8       30.01S
DAYTON GENERAL SUNNY     77  55  46 NW12      30.01S
WILMINGTON     SUNNY     76  55  48 NW12      30.02R
$$

OHZ036-037-039>041-045>050-054>059-063>069-073>076-082>088-011600-
  CENTRAL AND SOUTHEAST OHIO

CITY           SKY/WX    TMP DP  RH WIND       PRES   REMARKS
COLUMBUS       MOSUNNY   79  55  43 W9        29.98S
OSU AIRPORT    SUNNY     77  58  51 W10       29.99S
BOLTON FIELD   SUNNY     75  61  60 NW6       30.00S
RICKENBACK AFB SUNNY     77  56  49 NW9       29.98F
NEWARK         SUNNY     78  58  49 W8        29.98S
MARION         SUNNY     76  57  51 NW8       29.98F
LANCASTER      SUNNY     77  57  50 NW8       30.00S
ZANESVILLE     SUNNY     77  55  46 NW7       29.98F
NEW PHILLY     SUNNY     76  58  53 NW7       29.97S
$$


USA.gov is the U.S. government's official web portal to all federal, state and local government web resources and services.